Tracking 23764 objects as of 17-Oct-2021
HD Live streaming from Space Station
objects crossing your sky now

IRS P4 (OCEANSAT 1)

Track IRS P4 (OCEANSAT 1) now!
10-day predictions
IRS P4 (OCEANSAT 1) is classified as:


NORAD ID: 25758
Int'l Code: 1999-029C
Perigee: 721.2 km
Apogee: 727.3 km
Inclination: 98.0 °
Period: 99.1 minutes
Semi major axis: 7095 km
RCS: 3.5411 m2 (large)
Launch date: May 26, 1999
Source: India (IND)
Launch site: SRIHARIKOTA (SRI)

Transmits image of its own view; not currently used for scientific mission but operational.
aabbcc
Your satellite tracking list
Your tracking list is empty




NASA's NSSDC Master Catalog

Two Line Element Set (TLE):
1 25758U 99029C   21289.09355185  .00000098  00000-0  34068-4 0  9996
2 25758  97.9623 327.6352 0004249  66.0671 294.0970 14.52622331186384
Source of the keplerian elements: AFSPC